When you browse on this site, cookies collect data to enhance your experience and personalize the content and advertising you see.
Visit our Privacy Policy to learn more. By continuing to use the site, you agree to this use of cookies and data.
  • Em Portugal
  • Lista de países
  • Para 7 dias
  • Temperatura da água
  • Mapas de satélite
  • Mapa do tempo
  • Widgets de tempo
  • user-avatar
    Iniciar Sessão

    Previsão horária em Osaka

    Hoje, 20 Janeiro, Domingo

    Tempo Temperatura Precipitação Vento Pressão Humidade
    00:00 +9°C° 0 mm 1 m/s 764 mmHg 47%
    01:00 +9°C° 0 mm 1 m/s 763 mmHg 49%
    02:00 +9°C° 0 mm 1 m/s 762 mmHg 50%
    03:00 +9°C° 0 mm 1 m/s 761 mmHg 51%
    04:00 +9°C° 0 mm 1 m/s 761 mmHg 53%
    05:00 +8°C° 0 mm 2 m/s 760 mmHg 55%
    06:00 +9°C° 0 mm 2 m/s 759 mmHg 56%
    07:00 +9°C° 0.5 mm 2 m/s 759 mmHg 64%
    08:00 +10°C° 0.5 mm 2 m/s 758 mmHg 72%
    09:00 +9°C° 0 mm 1 m/s 758 mmHg 71%
    10:00 +8°C° 1 mm 2 m/s 758 mmHg 75%
    11:00 +9°C° 1 mm 2 m/s 757 mmHg 79%
    12:00 +9°C° 1 mm 3 m/s 757 mmHg 84%
    13:00 +10°C° 0.1 mm 4 m/s 757 mmHg 74%
    14:00 +10°C° 0.1 mm 6 m/s 757 mmHg 65%
    15:00 +11°C° 0 mm 4 m/s 757 mmHg 66%
    16:00 +11°C° 0.1 mm 4 m/s 757 mmHg 65%
    17:00 +11°C° 0.1 mm 4 m/s 758 mmHg 64%
    18:00 +9°C° 0.1 mm 5 m/s 758 mmHg 62%
    19:00 +9°C° 0.1 mm 5 m/s 758 mmHg 62%
    20:00 +8°C° 0.1 mm 5 m/s 758 mmHg 62%
    21:00 +8°C° 0.1 mm 5 m/s 759 mmHg 62%
    22:00 +7°C° 0.1 mm 5 m/s 759 mmHg 64%
    23:00 +7°C° 0.1 mm 5 m/s 759 mmHg 65%

    Amanhã, 21 Janeiro, Segunda-feira

    Tempo Temperatura Precipitação Vento Pressão Humidade
    00:00 +6°C° 0.1 mm 5 m/s 760 mmHg 66%
    01:00 +5°C° 0.1 mm 4 m/s 760 mmHg 67%
    02:00 +5°C° 0.1 mm 4 m/s 760 mmHg 68%
    03:00 +4°C° 0.1 mm 4 m/s 761 mmHg 69%
    04:00 +4°C° 0 mm 3 m/s 761 mmHg 68%
    05:00 +4°C° 0 mm 3 m/s 761 mmHg 68%
    06:00 +5°C° 0 mm 2 m/s 762 mmHg 68%
    07:00 +5°C° 0 mm 2 m/s 762 mmHg 66%
    08:00 +6°C° 0 mm 1 m/s 762 mmHg 65%
    09:00 +6°C° 0 mm 1 m/s 762 mmHg 64%
    10:00 +6°C° 0 mm 2 m/s 762 mmHg 59%
    11:00 +7°C° 0 mm 3 m/s 761 mmHg 54%
    12:00 +8°C° 0 mm 4 m/s 761 mmHg 49%
    13:00 +8°C° 0 mm 4 m/s 761 mmHg 48%
    14:00 +8°C° 0 mm 5 m/s 760 mmHg 48%
    15:00 +8°C° 0 mm 5 m/s 760 mmHg 47%
    16:00 +8°C° 0 mm 5 m/s 760 mmHg 47%
    17:00 +8°C° 0 mm 4 m/s 760 mmHg 47%
    18:00 +8°C° 0 mm 4 m/s 761 mmHg 47%
    19:00 +7°C° 0 mm 5 m/s 761 mmHg 49%
    20:00 +7°C° 0 mm 5 m/s 761 mmHg 50%
    21:00 +6°C° 0 mm 5 m/s 761 mmHg 52%
    22:00 +6°C° 0 mm 5 m/s 760 mmHg 53%
    23:00 +6°C° 0 mm 5 m/s 760 mmHg 55%

    Depois de amanhã, 22 Janeiro, Terça-feira

    Tempo Temperatura Precipitação Vento Pressão Humidade
    00:00 +6°C° 0 mm 5 m/s 760 mmHg 56%
    01:00 +5°C° 0.1 mm 6 m/s 760 mmHg 58%
    02:00 +5°C° 0.1 mm 6 m/s 760 mmHg 59%
    03:00 +5°C° 0.1 mm 6 m/s 760 mmHg 60%
    04:00 +5°C° 0.1 mm 6 m/s 760 mmHg 60%
    05:00 +5°C° 0.1 mm 6 m/s 760 mmHg 59%
    06:00 +5°C° 0.1 mm 6 m/s 760 mmHg 59%
    07:00 +5°C° 0 mm 6 m/s 760 mmHg 57%
    08:00 +5°C° 0 mm 6 m/s 760 mmHg 55%
    09:00 +7°C° 0 mm 6 m/s 761 mmHg 54%
    10:00 +7°C° 0 mm 5 m/s 761 mmHg 51%
    11:00 +8°C° 0 mm 5 m/s 761 mmHg 48%
    12:00 +8°C° 0 mm 5 m/s 761 mmHg 45%
    13:00 +8°C° 0 mm 5 m/s 761 mmHg 45%
    14:00 +8°C° 0 mm 4 m/s 761 mmHg 45%
    15:00 +8°C° 0 mm 4 m/s 760 mmHg 46%
    16:00 +8°C° 0 mm 4 m/s 761 mmHg 48%
    17:00 +9°C° 0 mm 3 m/s 761 mmHg 50%
    18:00 +8°C° 0 mm 2 m/s 762 mmHg 53%
    19:00 +8°C° 0 mm 2 m/s 762 mmHg 55%
    20:00 +8°C° 0 mm 1 m/s 762 mmHg 57%
    21:00 +8°C° 0 mm 1 m/s 762 mmHg 60%
    22:00 +8°C° 0 mm 1 m/s 762 mmHg 60%
    23:00 +7°C° 0 mm 1 m/s 762 mmHg 59%

    23 Janeiro, Quarta-feira

    Tempo Temperatura Precipitação Vento Pressão Humidade
    00:00 +6°C° 0 mm 2 m/s 762 mmHg 59%
    01:00 +6°C° 0 mm 2 m/s 761 mmHg 59%
    02:00 +6°C° 0 mm 2 m/s 761 mmHg 58%
    03:00 +5°C° 0 mm 3 m/s 761 mmHg 58%
    04:00 +7°C° 0.1 mm 3 m/s 761 mmHg 60%
    05:00 +7°C° 0.1 mm 3 m/s 761 mmHg 63%
    06:00 +6°C° 0.1 mm 4 m/s 760 mmHg 65%
    07:00 +7°C° 0.2 mm 5 m/s 760 mmHg 63%
    08:00 +8°C° 0.2 mm 6 m/s 760 mmHg 60%
    09:00 +8°C° 0.2 mm 7 m/s 760 mmHg 58%
    10:00 +9°C° 0.1 mm 7 m/s 760 mmHg 55%
    11:00 +9°C° 0.1 mm 8 m/s 759 mmHg 52%
    12:00 +10°C° 0.1 mm 8 m/s 759 mmHg 49%
    13:00 +10°C° 0 mm 8 m/s 759 mmHg 48%
    14:00 +10°C° 0 mm 7 m/s 758 mmHg 46%
    15:00 +10°C° 0 mm 7 m/s 758 mmHg 45%
    16:00 +10°C° 0 mm 7 m/s 758 mmHg 46%
    17:00 +9°C° 0 mm 7 m/s 759 mmHg 46%
    18:00 +9°C° 0 mm 7 m/s 759 mmHg 47%
    19:00 +8°C° 0 mm 7 m/s 760 mmHg 49%
    20:00 +6°C° 0 mm 7 m/s 760 mmHg 51%
    21:00 +6°C° 0 mm 7 m/s 761 mmHg 53%
    22:00 +5°C° 0 mm 7 m/s 761 mmHg 56%
    23:00 +4°C° 0 mm 7 m/s 762 mmHg 60%

    24 Janeiro, Quinta-feira

    Tempo Temperatura Precipitação Vento Pressão Humidade
    00:00 +3°C° 0 mm 7 m/s 762 mmHg 63%
    01:00 +3°C° 0 mm 7 m/s 762 mmHg 61%
    02:00 +2°C° 0 mm 7 m/s 763 mmHg 58%
    03:00 +2°C° 0 mm 7 m/s 763 mmHg 56%
    04:00 +1°C° 0 mm 6 m/s 763 mmHg 56%
    05:00 +1°C° 0 mm 6 m/s 764 mmHg 56%
    06:00 +1°C° 0 mm 5 m/s 764 mmHg 57%
    07:00 +1°C° 0 mm 5 m/s 765 mmHg 54%
    08:00 +2°C° 0 mm 6 m/s 765 mmHg 52%
    09:00 +2°C° 0 mm 6 m/s 766 mmHg 50%
    10:00 +3°C° 0 mm 6 m/s 766 mmHg 47%
    11:00 +3°C° 0 mm 6 m/s 766 mmHg 44%
    12:00 +4°C° 0 mm 6 m/s 766 mmHg 41%
    13:00 +4°C° 0 mm 6 m/s 765 mmHg 41%
    14:00 +4°C° 0 mm 6 m/s 765 mmHg 41%
    15:00 +4°C° 0 mm 6 m/s 765 mmHg 41%
    16:00 +3°C° 0 mm 5 m/s 766 mmHg 45%
    17:00 +3°C° 0 mm 5 m/s 766 mmHg 48%
    18:00 +2°C° 0 mm 5 m/s 766 mmHg 52%
    19:00 +3°C° 0 mm 4 m/s 767 mmHg 54%
    20:00 +3°C° 0 mm 4 m/s 767 mmHg 57%
    21:00 +2°C° 0 mm 3 m/s 767 mmHg 59%
    22:00 +2°C° 0 mm 3 m/s 767 mmHg 60%
    23:00 +3°C° 0 mm 2 m/s 767 mmHg 61%

    25 Janeiro, Sexta-feira

    Tempo Temperatura Precipitação Vento Pressão Humidade
    00:00 +3°C° 0 mm 2 m/s 767 mmHg 61%
    01:00 +3°C° 0 mm 2 m/s 767 mmHg 62%
    02:00 +4°C° 0 mm 1 m/s 767 mmHg 63%
    03:00 +3°C° 0 mm 1 m/s 766 mmHg 64%
    04:00 +3°C° 0 mm 1 m/s 766 mmHg 65%
    05:00 +3°C° 0 mm 1 m/s 766 mmHg 65%
    06:00 +3°C° 0 mm 1 m/s 766 mmHg 66%
    07:00 +4°C° 0 mm 1 m/s 766 mmHg 63%
    08:00 +4°C° 0 mm 1 m/s 766 mmHg 60%
    09:00 +5°C° 0 mm 1 m/s 766 mmHg 57%
    10:00 +6°C° 0 mm 1 m/s 766 mmHg 52%
    11:00 +7°C° 0 mm 1 m/s 765 mmHg 47%
    12:00 +8°C° 0 mm 1 m/s 764 mmHg 42%
    13:00 +7°C° 0 mm 2 m/s 764 mmHg 43%
    14:00 +8°C° 0 mm 2 m/s 763 mmHg 44%
    15:00 +8°C° 0 mm 3 m/s 762 mmHg 45%
    16:00 +8°C° 0.1 mm 3 m/s 762 mmHg 48%
    17:00 +7°C° 0.1 mm 4 m/s 762 mmHg 50%
    18:00 +7°C° 0.1 mm 4 m/s 762 mmHg 53%
    19:00 +7°C° 0.3 mm 5 m/s 761 mmHg 52%
    20:00 +5°C° 0.3 mm 6 m/s 761 mmHg 52%
    21:00 +5°C° 0.3 mm 6 m/s 761 mmHg 51%
    22:00 +5°C° 0 mm 6 m/s 760 mmHg 51%
    23:00 +4°C° 0 mm 7 m/s 760 mmHg 51%
    Mostrar mais